Location: Kalwaria Zebrzydowska
(49.8686°N, 19.6647°E)
Time: 07:38:25
(UTC+02:00)

ISS - Visible Passes

Search period start: 20 September 2018 00:00
Search period end: 30 September 2018 00:00
Orbit: 402 x 408 km, 51.6° (Epoch: 20 September)

Date Brightness Start Highest point End Pass type
(mag) Time Alt. Az. Time Alt. Az. Time Alt. Az.
22 Sep -1.9 20:27:14 10° SSW 20:28:33 19° S 20:28:33 19° S visible
23 Sep -2.1 19:35:58 10° S 19:38:15 18° SE 19:39:11 16° ESE visible
23 Sep -1.3 21:11:04 10° WSW 21:11:54 17° WSW 21:11:54 17° WSW visible
24 Sep -3.6 20:19:11 10° SW 20:22:20 49° SSE 20:22:20 49° SSE visible
25 Sep -2.9 19:27:28 10° SSW 19:30:28 32° SSE 19:32:36 16° E visible
25 Sep -2.0 21:03:29 10° W 21:05:17 29° W 21:05:17 29° W visible
26 Sep -3.9 20:11:27 10° WSW 20:14:44 82° SSE 20:15:26 52° E visible
26 Sep -0.3 21:48:04 10° W 21:48:06 10° W 21:48:06 10° W visible
27 Sep -3.7 19:19:28 10° SW 19:22:43 57° SSE 19:25:29 13° ENE visible
27 Sep -2.3 20:55:57 10° W 20:58:09 37° WNW 20:58:09 37° WNW visible
28 Sep -3.7 20:03:49 10° W 20:07:07 72° NNW 20:08:07 41° ENE visible
28 Sep -0.4 21:40:30 10° WNW 21:40:47 12° WNW 21:40:47 12° WNW visible
29 Sep -3.8 19:11:43 10° WSW 19:15:01 90° NE 19:18:02 12° ENE visible
29 Sep -2.5 20:48:22 10° W 20:50:42 40° WNW 20:50:42 40° WNW visible
